Regional Weather Roundup
Issued by NWS Jackson, KY

Home | Current Version | Previous Version | Text Only | Print | Product List | Glossary Off
Versions: 1 2 3 4 5 6 7 8 9 10 11 12 13 14 15 16 17 18 19 20 21 22 23 24 25 26 27

000
ASUS43 KJKL 260810
RWRJKL

EAST KENTUCKY HOURLY WEATHER ROUNDUP
NATIONAL WEATHER SERVICE JACKSON KY
400 AM EDT MON JUN 26 2017

NOTE: "FAIR" INDICATES FEW OR NO CLOUDS BELOW 12,000 FEET WITH
NO SIGNIFICANT WEATHER AND/OR OBSTRUCTIONS TO VISIBILITY.

* THESE REPORTS ARE NOT UNDER NWS QUALITY CONTROL AND MAY NOT
  REPORT WEATHER SUCH AS PRECIPITATION AND FOG.

KYZ079-080-083-085-087-088-110-112-115-119-120-260900
...EASTERN KENTUCKY...

CITY           SKY/WX    TMP DP  RH WIND       PRES   REMARKS
JACKSON        CLEAR     60  51  72 CALM      30.15F
LONDON         CLEAR     57  52  83 CALM      30.16F
SOMERSET*      PTCLDY    54  54 100 CALM      30.17S
MONTICELLO*    CLEAR     54  53  97 W10       30.18S
WILLIAMSBURG*  SUNNY     54  54 100 CALM      30.17S
MIDDLESBORO*   CLEAR     53  53 100 CALM      30.20S
HARLAN APT*    CLOUDY    52  50  93 CALM      30.19F
PIKE CO APT*     N/A     61  49  65 CALM      30.15S
BIG SANDY APT* SUNNY     60  51  72 SW3       30.15R
MOREHEAD APT*  SUNNY     55  52  88 S5        30.14F FOG
$$

KYZ035-036-041-042-044-050-067-078-099-260900
...CENTRAL KENTUCKY...

CITY           SKY/WX    TMP DP  RH WIND       PRES   REMARKS
MT STERLING*   CLEAR     52  52 100 SW6       30.15S
FLEMING/MASON* CLEAR     56  50  81 W3        30.14S
DANVILLE*      PTCLDY    54  50  87 CALM      30.16S
LEXINGTON      PTCLDY    58  49  72 W3        30.14F
FRANKFORT      CLEAR     56  50  80 CALM      30.13S
LOUISVILLE     PTCLDY    63  50  62 W3        30.15S
LEBANON*         N/A    N/A N/A N/A MISG        N/A
GLASGOW*       CLOUDY    57  57 100 CALM      30.16S
BOWLING GREEN  CLEAR     62  59  90 CALM      30.15F
$$

KYZ091>093-OHZ055-061-077-WVZ005-015-034-035-042-260900
...SOUTHERN OHIO/WEST VIRGINIA...

CITY           SKY/WX    TMP DP  RH WIND       PRES   REMARKS
COVINGTON      PTCLDY    59  50  72 NW7       30.13S
COLUMBUS       PTCLDY    59  51  75 S3        30.08F
DAYTON         PTCLDY    56  49  77 W8        30.12S
WILMINGTON     MOCLDY    58  52  80 W6        30.11F
HUNTINGTON     CLEAR     57  54  89 SW3       30.11F
CHARLESTON     CLEAR     56  53  90 CALM      30.11F
PINEVILLE*     CLEAR     52  51  96 MISG      30.21S
BECKLEY        CLEAR     55  46  71 CALM      30.17S
BLUEFIELD      PTCLDY    54  44  69 W7        30.19S
LOGAN CO APT*    N/A     61  50  67 CALM      30.14F
$$

VAZ002-007-008-TNZ017-027-036-066-071-260900
...SOUTHWEST VIRGINIA/EAST TENNESSEE...

CITY           SKY/WX    TMP DP  RH WIND       PRES   REMARKS
WISE*          CLEAR     55  45  67 CALM      30.22S
JONESVILLE*      N/A     52  50  93 CALM      30.21S
ABINGDON*      CLEAR     55  52  90 CALM      30.19S
BRISTOL        PTCLDY    53  51  93 CALM      30.18F
MORRISTOWN*    MOSUNNY   57  52  82 CALM      30.17S
SEVIERVILLE*   SUNNY     54  52  94 CALM      30.17F
KNOXVILLE      PTCLDY    59  53  80 CALM      30.16F
LAFOLLETTE*      N/A     54  54 100 CALM      30.21S
OAK RIDGE      CLEAR     56  53  90 CALM      30.18F
CROSSVILLE     CLEAR     52  50  93 CALM      30.20F
NASHVILLE      PTCLDY    62  57  83 S3        30.16F
$$

...KEY TO REMARKS...
VSB - VISIBILITY IN MILES
WCI - WIND CHILL INDEX
HX  - HEAT INDEX

$$




USA.gov is the U.S. government's official web portal to all federal, state and local government web resources and services.